カタログに戻る

OPS 4682 DEB

運用中PO
NORAD 38445·DEBRIS·🇺🇸 United States

打ち上げ Apr 3, 1965 から Vandenberg Space Force Base

Loading…

次のパス (今後24時間)

TLE

最新Source: Space-Track

元期: Sep 12, 2026, 18:05 UTC

1 38445U 65027FA  26255.75356714  .00000231  00000-0  79385-3 0  9993
2 38445  90.2472   8.5383 0028285 332.6754  27.2877 12.95433408615365

AllMySatでOPS 4682 DEBをリアルタイム追跡

Download on the App Store